Weather History for Sierra Vista, AZ

Change the Weather History Date:

Monday, July 29, 2013

  Actual Average Record
Temperature  
Mean Temperature 78 °F -  
Max Temperature 89 °F 87 °F 101 °F (1986)
Min Temperature 68 °F 68 °F 60 °F (1989)
Cooling Degree Days 14    
Growing Degree Days 28 (Base 50)    
Moisture  
Dew Point 52 °F    
Average Humidity 40    
Maximum Humidity 64    
Minimum Humidity 22    
Precipitation  
Precipitation 0.00 in - - ()
Sea Level Pressure  
Sea Level Pressure 29.97 in    
Wind  
Wind Speed 6 mph (West)    
Max Wind Speed 12 mph    
Max Gust Speed 16 mph    
Visibility 10 miles    
Events      
Averages and records for this station are not official NWS values.
T = Trace of Precipitation, MM = Missing Value Source: NWS Daily Summary

Daily Weather History Graph

Daily Weather History Graph

Search for Another Location

Airport:

Trip Planner

Search our weather history database for the weather conditions in past years. The results will help you decide how hot, cold, wet, or windy it might be!

Date:

Astronomy

Jul. 29, 2013 Rise Set
Actual Time 5:35 AM MST 7:19 PM MST
Civil Twilight 5:09 AM MST 7:46 PM MST
Nautical Twilight 4:37 AM MST 8:18 PM MST
Astronomical Twilight 4:03 AM MST 8:51 PM MST
Moon 11:53 PM MST (7/29) 12:48 PM MST (7/29)
Length of Visible Light 14h 37m
Length of Day
13h 43m
Waning Gibbous, 50% of the Moon is Illuminated
Jul 29
Waning Gibbous
Aug 6
New
Aug 14
First Quarter
Aug 20
Full
Aug 28
Last Quarter

Hourly Weather History & Observations

Time (MST) Temp. Heat Index Dew Point Humidity Pressure Visibility Wind Dir Wind Speed Gust Speed Precip Events Conditions
12:55 AM 77.0 °F - 46.4 °F 34% 29.89 in 10.0 mi West 3.5 mph - N/A   Mostly Cloudy
1:55 AM 71.6 °F - 55.4 °F 57% 29.90 in 10.0 mi Variable 4.6 mph - N/A   Mostly Cloudy
2:55 AM 73.4 °F - 53.6 °F 50% 29.90 in 10.0 mi NE 4.6 mph - N/A   Mostly Cloudy
3:55 AM 69.8 °F - 55.4 °F 60% 29.91 in 10.0 mi WNW 3.5 mph - N/A   Mostly Cloudy
4:55 AM 69.8 °F - 55.4 °F 60% 29.91 in 10.0 mi NNE 6.9 mph - N/A   Mostly Cloudy
5:55 AM 68.0 °F - 55.4 °F 64% 29.95 in 10.0 mi ENE 5.8 mph - N/A   Mostly Cloudy
6:55 AM 69.8 °F - 57.2 °F 64% 29.98 in 10.0 mi NE 3.5 mph - N/A   Mostly Cloudy
7:55 AM 73.4 °F - 55.4 °F 53% 30.00 in 10.0 mi East 4.6 mph - N/A   Mostly Cloudy
8:55 AM 78.8 °F - 57.2 °F 47% 30.00 in 10.0 mi Variable 3.5 mph - N/A   Mostly Cloudy
9:55 AM 80.6 °F 80.3 °F 53.6 °F 39% 30.01 in 10.0 mi Variable 3.5 mph - N/A   Mostly Cloudy
10:55 AM 84.2 °F - 50.0 °F 30% 30.00 in 10.0 mi WNW 10.4 mph - N/A   Mostly Cloudy
11:55 AM 86.0 °F - 51.8 °F 31% 30.00 in 10.0 mi West 6.9 mph - N/A   Mostly Cloudy
12:55 PM 86.0 °F - 50.0 °F 29% 29.99 in 10.0 mi WSW 8.1 mph - N/A   Mostly Cloudy
1:55 PM 87.8 °F - 48.2 °F 25% 29.99 in 10.0 mi WNW 5.8 mph - N/A   Mostly Cloudy
2:55 PM 87.8 °F - 48.2 °F 25% 29.97 in 10.0 mi WNW 8.1 mph - N/A   Scattered Clouds
3:55 PM 89.6 °F - 48.2 °F 24% 29.96 in 10.0 mi West 11.5 mph - N/A   Scattered Clouds
4:56 PM 89.1 °F - 46.0 °F 22% 29.96 in 10.0 mi West 10.4 mph 16.1 mph N/A   Clear
5:56 PM 88.0 °F - 48.0 °F 25% 29.97 in 10.0 mi West 10.4 mph - N/A   Clear
6:56 PM 84.9 °F - 50.0 °F 30% 29.98 in 10.0 mi West 9.2 mph - N/A   Clear
7:56 PM 82.0 °F - 50.0 °F 33% 30.00 in 10.0 mi WSW 10.4 mph - N/A   Partly Cloudy
8:56 PM 80.1 °F - 48.9 °F 34% 30.03 in 10.0 mi SW 9.2 mph - N/A   Partly Cloudy
9:56 PM 80.1 °F - 50.0 °F 35% 30.03 in 10.0 mi SW 5.8 mph - N/A   Clear
10:55 PM 73.4 °F - 53.6 °F 50% 30.04 in 10.0 mi WNW 3.5 mph - N/A   Partly Cloudy
11:55 PM 78.8 °F - 50.0 °F 36% 30.02 in 10.0 mi SW 11.5 mph - N/A   Scattered Clouds